GFSSW_prec_precacc_174.txt.gz
Total_Precipitation_Accumulation
0.04 0.06 0.07 0.08 0.09 0.09 0.11 0.12 0.13 0.12 0.11 0.09 0.10 0.09 0.10 0.12 0.09 0.06 0.03 0.03 0.01 0.00 0.00 0.00 0.00 0.00 0.00 0.00 0.00 0.02 0.04 0.01 0.00 0.00 0.00 0.00 0.00 0.00 0.00 0.00 0.00 0.00 0.00 0.00 0.00
0.04 0.05 0.07 0.08 0.09 0.09 0.11 0.11 0.11 0.11 0.12 0.14 0.16 0.18 0.24 0.22 0.05 0.05 0.05 0.02 0.01 0.00 0.00 0.00 0.00 0.01 0.00 0.00 0.01 0.05 0.02 0.00 0.00 0.00 0.00 0.00 0.00 0.00 0.00 0.00 0.00 0.00 0.00 0.00 0.00
0.06 0.06 0.06 0.08 0.09 0.10 0.10 0.11 0.12 0.10 0.10 0.13 0.17 0.30 0.42 0.15 0.03 0.05 0.04 0.03 0.05 0.01 0.00 0.00 0.00 0.03 0.03 0.02 0.02 0.04 0.02 0.00 0.00 0.00 0.00 0.00 0.00 0.00 0.00 0.00 0.00 0.00 0.00 0.00 0.00
0.10 0.09 0.08 0.08 0.11 0.11 0.12 0.11 0.13 0.14 0.15 0.14 0.23 0.40 0.31 0.09 0.05 0.02 0.03 0.02 0.01 0.01 0.02 0.01 0.01 0.04 0.04 0.04 0.04 0.07 0.00 0.00 0.00 0.00 0.01 0.02 0.01 0.01 0.00 0.00 0.00 0.00 0.00 0.00 0.00
0.10 0.14 0.17 0.15 0.15 0.15 0.12 0.12 0.13 0.16 0.14 0.16 0.30 0.45 0.25 0.10 0.04 0.00 0.00 0.01 0.01 0.01 0.03 0.02 0.03 0.07 0.09 0.05 0.06 0.09 0.04 0.03 0.02 0.04 0.04 0.03 0.04 0.02 0.00 0.00 0.00 0.00 0.00 0.00 0.00
0.16 0.20 0.20 0.24 0.28 0.23 0.17 0.18 0.20 0.20 0.17 0.16 0.37 0.38 0.21 0.10 0.00 0.00 0.00 0.00 0.00 0.01 0.03 0.05 0.05 0.06 0.10 0.04 0.07 0.09 0.05 0.03 0.03 0.03 0.03 0.07 0.05 0.03 0.00 0.00 0.00 0.00 0.00 0.00 0.00
0.18 0.21 0.31 0.32 0.22 0.23 0.31 0.33 0.29 0.21 0.22 0.31 0.43 0.26 0.22 0.05 0.00 0.00 0.00 0.00 0.01 0.01 0.00 0.00 0.03 0.11 0.12 0.06 0.02 0.03 0.05 0.01 0.00 0.01 0.02 0.13 0.13 0.01 0.00 0.01 0.03 0.01 0.00 0.00 0.00
0.20 0.21 0.26 0.27 0.37 0.38 0.31 0.27 0.37 0.40 0.39 0.36 0.27 0.24 0.22 0.00 0.00 0.00 0.00 0.00 0.00 0.00 0.00 0.00 0.00 0.03 0.06 0.08 0.06 0.09 0.13 0.07 0.00 0.02 0.06 0.29 0.32 0.00 0.00 0.03 0.01 0.00 0.00 0.00 0.00
0.27 0.27 0.28 0.30 0.31 0.38 0.40 0.42 0.39 0.35 0.41 0.39 0.37 0.37 0.15 0.00 0.00 0.00 0.00 0.00 0.00 0.00 0.00 0.01 0.05 0.08 0.09 0.17 0.18 0.12 0.14 0.04 0.01 0.06 0.24 0.33 0.22 0.00 0.00 0.02 0.02 0.02 0.02 0.01 0.00
0.33 0.36 0.36 0.35 0.42 0.59 0.64 0.56 0.43 0.42 0.29 0.36 0.58 0.69 0.16 0.00 0.00 0.00 0.00 0.00 0.01 0.02 0.03 0.08 0.17 0.17 0.19 0.27 0.21 0.07 0.12 0.05 0.06 0.06 0.24 0.33 0.25 0.04 0.01 0.03 0.02 0.01 0.00 0.00 0.00
0.37 0.43 0.48 0.51 0.55 0.75 0.94 0.88 0.93 0.78 0.61 0.27 0.21 0.12 0.01 0.02 0.03 0.00 0.00 0.00 0.00 0.05 0.06 0.06 0.13 0.13 0.13 0.16 0.07 0.10 0.15 0.13 0.02 0.01 0.19 0.25 0.18 0.06 0.03 0.03 0.00 0.00 0.00 0.00 0.00
0.48 0.54 0.66 0.76 0.70 0.73 0.78 0.65 0.48 0.65 0.41 0.14 0.06 0.04 0.01 0.02 0.02 0.00 0.02 0.05 0.02 0.02 0.02 0.10 0.14 0.02 0.02 0.06 0.11 0.14 0.13 0.06 0.06 0.03 0.11 0.10 0.05 0.03 0.04 0.01 0.00 0.00 0.00 0.00 0.01
0.65 0.67 0.80 0.90 0.96 0.87 0.64 0.44 0.37 0.47 0.63 0.15 0.05 0.03 0.01 0.01 0.01 0.00 0.01 0.06 0.04 0.01 0.01 0.04 0.08 0.00 0.03 0.04 0.06 0.07 0.13 0.08 0.05 0.01 0.02 0.02 0.02 0.00 0.00 0.00 0.00 0.00 0.00 0.00 0.02
0.75 0.84 1.00 0.98 1.18 0.79 0.75 0.56 0.47 0.88 1.31 0.32 0.02 0.03 0.01 0.04 0.05 0.00 0.00 0.04 0.11 0.03 0.01 0.04 0.00 0.03 0.06 0.05 0.06 0.07 0.01 0.03 0.04 0.13 0.10 0.06 0.12 0.00 0.00 0.00 0.00 0.00 0.00 0.00 0.02
1.05 1.08 1.18 1.19 0.78 0.81 0.66 0.60 0.84 1.52 2.23 0.31 0.00 0.00 0.00 0.09 0.06 0.01 0.01 0.07 0.11 0.09 0.11 0.06 0.00 0.01 0.05 0.04 0.06 0.05 0.05 0.07 0.05 0.09 0.11 0.06 0.16 0.04 0.00 0.00 0.00 0.00 0.00 0.00 0.00
0.97 1.36 1.13 0.98 0.91 0.57 0.58 1.24 1.76 2.29 2.12 0.28 0.10 0.06 0.05 0.02 0.00 0.04 0.14 0.12 0.15 0.14 0.25 0.09 0.00 0.01 0.02 0.02 0.07 0.05 0.10 0.15 0.19 0.21 0.64 0.22 0.09 0.05 0.00 0.00 0.00 0.00 0.00 0.00 0.00
1.30 1.37 1.38 0.90 0.95 0.75 1.18 2.19 2.63 2.07 0.63 0.30 0.12 0.18 0.16 0.03 0.01 0.07 0.21 0.30 0.16 0.53 0.48 0.30 0.06 0.01 0.05 0.09 0.12 0.29 0.37 0.71 0.92 0.95 0.81 0.08 0.07 0.04 0.00 0.00 0.00 0.00 0.00 0.00 0.00
1.41 1.48 1.15 1.01 0.83 1.17 1.87 2.43 2.59 0.62 0.19 0.17 0.14 0.14 0.21 0.21 0.10 0.07 0.17 0.42 0.30 0.25 0.47 0.30 0.18 0.03 0.06 0.08 0.14 0.27 0.72 0.78 0.58 0.53 0.21 0.04 0.04 0.01 0.00 0.00 0.00 0.00 0.00 0.00 0.00
1.28 1.35 1.42 1.02 0.83 1.52 2.33 2.53 1.29 0.26 0.11 0.11 0.09 0.25 0.18 0.39 0.50 0.24 0.13 0.18 0.54 0.54 0.73 0.68 0.18 0.04 0.02 0.01 0.07 0.14 0.46 0.54 0.31 0.16 0.23 0.12 0.04 0.00 0.00 0.00 0.00 0.00 0.00 0.00 0.00
1.49 1.52 1.69 1.27 1.24 1.77 2.36 1.66 0.47 0.07 0.11 0.10 0.22 0.26 0.44 0.26 0.52 0.71 0.33 0.06 0.11 0.57 0.88 0.71 0.53 0.07 0.07 0.10 0.08 0.07 0.12 0.41 1.04 0.97 0.30 0.06 0.02 0.00 0.00 0.00 0.00 0.00 0.00 0.00 0.00
1.83 1.94 1.48 1.60 1.75 2.19 2.09 0.70 0.12 0.03 0.13 0.26 0.14 0.19 0.24 0.44 0.64 0.72 0.64 0.16 0.07 0.15 0.64 1.11 0.77 0.17 0.19 0.32 0.18 0.27 0.29 0.47 0.93 0.63 0.40 0.19 0.02 0.01 0.01 0.01 0.00 0.00 0.00 0.00 0.00
2.12 2.02 1.55 1.86 2.67 2.16 1.02 0.16 0.06 0.04 0.10 0.24 0.25 0.15 0.10 0.21 0.68 0.80 0.49 0.42 0.33 0.22 0.17 0.52 1.12 0.47 0.24 0.28 0.25 0.23 0.61 0.72 0.94 0.76 0.44 0.36 0.15 0.01 0.02 0.01 0.00 0.00 0.00 0.00 0.00
2.23 1.55 1.82 1.47 2.10 1.44 0.56 0.17 0.11 0.06 0.14 0.28 0.20 0.09 0.06 0.18 0.74 0.60 0.63 0.46 0.56 0.47 0.39 0.34 0.78 0.88 0.48 0.62 0.49 0.53 0.26 0.41 0.46 0.39 0.30 0.40 0.17 0.03 0.06 0.02 0.01 0.01 0.00 0.00 0.00
2.51 1.90 2.31 2.31 1.09 0.56 0.56 0.41 0.28 0.11 0.12 0.21 0.21 0.17 0.27 0.18 0.31 0.45 0.31 0.33 0.35 0.49 0.44 0.59 0.78 0.73 0.55 1.00 1.10 0.98 0.74 0.36 0.48 0.50 0.20 0.16 0.07 0.09 0.10 0.05 0.02 0.01 0.01 0.00 0.00
2.54 1.61 1.53 1.86 1.16 0.57 0.81 0.78 0.26 0.19 0.23 0.26 0.29 0.21 0.37 0.51 0.14 0.18 0.14 0.34 0.42 0.61 0.53 0.94 1.05 0.50 0.15 0.10 0.28 0.42 0.66 0.57 0.59 0.35 0.30 0.08 0.01 0.03 0.10 0.07 0.04 0.04 0.01 0.00 0.00
1.88 1.09 1.11 0.81 0.54 0.67 0.76 0.52 0.19 0.28 0.38 0.20 0.24 0.05 0.12 0.31 0.15 0.14 0.36 0.52 0.67 0.70 0.85 1.14 1.24 0.44 0.18 0.04 0.06 0.12 0.16 0.30 0.38 0.19 0.10 0.05 0.03 0.03 0.03 0.09 0.14 0.10 0.05 0.01 0.00
1.15 0.72 1.31 1.41 0.78 0.97 0.60 0.25 0.27 0.33 0.23 0.03 0.07 0.17 0.10 0.06 0.06 0.26 0.28 0.45 0.61 0.74 0.95 1.13 0.98 0.56 0.36 0.14 0.23 0.28 0.06 0.11 0.23 0.24 0.18 0.17 0.12 0.02 0.03 0.13 0.41 0.22 0.09 0.06 0.01

GFSSW_prec_precacc_177.txt.gz
Total_Precipitation_Accumulation
0.04 0.06 0.07 0.08 0.09 0.10 0.12 0.13 0.13 0.13 0.12 0.10 0.11 0.09 0.10 0.12 0.09 0.06 0.04 0.04 0.02 0.00 0.00 0.00 0.00 0.00 0.00 0.00 0.00 0.02 0.04 0.01 0.00 0.00 0.00 0.00 0.00 0.00 0.00 0.00 0.00 0.00 0.00 0.00 0.00
0.04 0.05 0.07 0.08 0.09 0.10 0.11 0.12 0.11 0.11 0.12 0.15 0.16 0.18 0.24 0.22 0.05 0.05 0.06 0.02 0.01 0.00 0.00 0.00 0.00 0.01 0.00 0.00 0.01 0.05 0.02 0.00 0.00 0.00 0.00 0.00 0.00 0.00 0.00 0.00 0.00 0.00 0.00 0.00 0.00
0.07 0.06 0.06 0.08 0.09 0.10 0.10 0.12 0.12 0.11 0.10 0.13 0.17 0.30 0.42 0.15 0.03 0.05 0.04 0.03 0.05 0.01 0.00 0.00 0.00 0.03 0.03 0.02 0.02 0.04 0.02 0.00 0.00 0.00 0.00 0.00 0.00 0.00 0.00 0.00 0.00 0.00 0.00 0.00 0.00
0.10 0.09 0.08 0.08 0.11 0.11 0.12 0.11 0.13 0.15 0.15 0.14 0.23 0.40 0.31 0.09 0.05 0.02 0.03 0.02 0.01 0.01 0.02 0.01 0.01 0.04 0.04 0.04 0.04 0.07 0.00 0.00 0.00 0.00 0.01 0.02 0.01 0.01 0.00 0.00 0.00 0.00 0.00 0.00 0.00
0.10 0.14 0.17 0.15 0.15 0.15 0.12 0.12 0.13 0.16 0.14 0.16 0.30 0.45 0.25 0.10 0.04 0.00 0.00 0.01 0.01 0.01 0.03 0.02 0.03 0.07 0.09 0.05 0.06 0.09 0.04 0.03 0.02 0.04 0.04 0.03 0.04 0.02 0.00 0.00 0.00 0.00 0.00 0.00 0.00
0.16 0.20 0.20 0.24 0.28 0.23 0.17 0.18 0.20 0.20 0.17 0.16 0.37 0.38 0.21 0.10 0.00 0.00 0.00 0.00 0.00 0.01 0.03 0.05 0.05 0.06 0.10 0.04 0.07 0.09 0.05 0.03 0.03 0.03 0.03 0.07 0.05 0.03 0.00 0.00 0.00 0.00 0.00 0.00 0.00
0.18 0.21 0.31 0.32 0.22 0.23 0.31 0.33 0.29 0.21 0.22 0.31 0.43 0.26 0.22 0.05 0.00 0.00 0.00 0.00 0.01 0.01 0.00 0.00 0.03 0.11 0.12 0.06 0.02 0.03 0.05 0.01 0.00 0.01 0.02 0.13 0.13 0.01 0.00 0.01 0.03 0.01 0.00 0.00 0.00
0.20 0.21 0.26 0.27 0.37 0.38 0.31 0.27 0.37 0.40 0.39 0.36 0.27 0.24 0.22 0.00 0.00 0.00 0.00 0.00 0.00 0.00 0.00 0.00 0.00 0.03 0.06 0.08 0.06 0.09 0.13 0.07 0.00 0.02 0.06 0.29 0.32 0.00 0.00 0.03 0.01 0.00 0.00 0.00 0.00
0.27 0.27 0.28 0.30 0.31 0.38 0.40 0.42 0.39 0.35 0.41 0.39 0.37 0.37 0.15 0.00 0.00 0.00 0.00 0.00 0.00 0.00 0.00 0.01 0.05 0.08 0.09 0.17 0.18 0.12 0.14 0.04 0.01 0.06 0.24 0.33 0.22 0.00 0.00 0.02 0.02 0.02 0.02 0.01 0.00
0.33 0.36 0.36 0.35 0.42 0.59 0.64 0.56 0.43 0.42 0.29 0.36 0.58 0.69 0.16 0.00 0.00 0.00 0.00 0.00 0.01 0.02 0.03 0.08 0.17 0.17 0.19 0.27 0.21 0.07 0.12 0.05 0.06 0.06 0.24 0.33 0.25 0.04 0.01 0.03 0.02 0.01 0.00 0.00 0.00
0.38 0.43 0.48 0.51 0.55 0.75 0.94 0.88 0.93 0.78 0.61 0.27 0.21 0.12 0.01 0.02 0.03 0.00 0.00 0.00 0.00 0.05 0.06 0.06 0.13 0.13 0.13 0.16 0.07 0.10 0.15 0.13 0.02 0.01 0.19 0.25 0.18 0.06 0.03 0.03 0.00 0.00 0.00 0.00 0.00
0.48 0.54 0.66 0.76 0.70 0.73 0.78 0.65 0.48 0.65 0.41 0.14 0.06 0.04 0.01 0.02 0.02 0.00 0.02 0.05 0.02 0.02 0.02 0.10 0.14 0.02 0.02 0.06 0.11 0.14 0.13 0.06 0.06 0.03 0.11 0.10 0.05 0.03 0.04 0.01 0.00 0.00 0.00 0.00 0.01
0.66 0.67 0.80 0.90 0.96 0.87 0.64 0.44 0.37 0.47 0.63 0.15 0.05 0.03 0.01 0.01 0.01 0.00 0.01 0.06 0.04 0.01 0.01 0.04 0.08 0.00 0.03 0.04 0.06 0.07 0.13 0.08 0.05 0.01 0.02 0.02 0.02 0.00 0.00 0.00 0.00 0.00 0.00 0.00 0.02
0.76 0.84 1.00 0.98 1.18 0.79 0.75 0.56 0.47 0.88 1.31 0.32 0.02 0.03 0.01 0.04 0.05 0.00 0.00 0.04 0.11 0.03 0.01 0.04 0.00 0.03 0.06 0.05 0.06 0.07 0.01 0.03 0.04 0.13 0.10 0.06 0.12 0.00 0.00 0.00 0.00 0.00 0.00 0.00 0.02
1.05 1.08 1.18 1.19 0.78 0.81 0.66 0.60 0.84 1.52 2.23 0.31 0.00 0.00 0.00 0.09 0.06 0.01 0.01 0.07 0.11 0.09 0.11 0.06 0.00 0.01 0.05 0.04 0.06 0.05 0.05 0.07 0.05 0.09 0.11 0.06 0.16 0.04 0.00 0.00 0.00 0.00 0.00 0.00 0.00
0.98 1.37 1.13 0.98 0.91 0.57 0.58 1.24 1.76 2.29 2.12 0.28 0.10 0.06 0.05 0.02 0.00 0.04 0.14 0.12 0.15 0.14 0.25 0.09 0.00 0.01 0.02 0.02 0.07 0.05 0.10 0.15 0.19 0.21 0.64 0.22 0.09 0.05 0.00 0.00 0.00 0.00 0.00 0.00 0.00
1.31 1.38 1.38 0.90 0.95 0.75 1.18 2.19 2.63 2.07 0.63 0.30 0.12 0.18 0.16 0.03 0.01 0.07 0.21 0.30 0.16 0.53 0.48 0.30 0.06 0.01 0.05 0.09 0.12 0.29 0.37 0.71 0.92 0.95 0.81 0.08 0.07 0.04 0.00 0.00 0.00 0.00 0.00 0.00 0.00
1.42 1.48 1.15 1.01 0.83 1.17 1.87 2.43 2.59 0.62 0.19 0.17 0.14 0.14 0.21 0.21 0.10 0.07 0.17 0.42 0.30 0.25 0.47 0.30 0.18 0.03 0.06 0.08 0.14 0.27 0.72 0.78 0.58 0.53 0.21 0.04 0.04 0.01 0.00 0.00 0.00 0.00 0.00 0.00 0.00
1.29 1.35 1.43 1.02 0.83 1.52 2.33 2.53 1.29 0.26 0.11 0.11 0.09 0.25 0.18 0.39 0.50 0.24 0.13 0.18 0.54 0.54 0.73 0.68 0.18 0.04 0.02 0.01 0.07 0.14 0.46 0.54 0.31 0.16 0.23 0.12 0.04 0.00 0.00 0.00 0.00 0.00 0.00 0.00 0.00
1.49 1.53 1.69 1.27 1.24 1.77 2.36 1.66 0.47 0.07 0.11 0.10 0.22 0.26 0.44 0.26 0.52 0.71 0.33 0.06 0.11 0.57 0.88 0.71 0.53 0.07 0.07 0.10 0.08 0.07 0.12 0.41 1.04 0.97 0.30 0.06 0.02 0.00 0.00 0.00 0.00 0.00 0.00 0.00 0.00
1.84 1.95 1.48 1.60 1.75 2.19 2.09 0.70 0.12 0.03 0.13 0.26 0.14 0.19 0.24 0.44 0.64 0.72 0.64 0.16 0.07 0.15 0.64 1.11 0.77 0.17 0.19 0.32 0.18 0.27 0.29 0.47 0.93 0.63 0.40 0.19 0.02 0.01 0.01 0.01 0.00 0.00 0.00 0.00 0.00
2.20 2.04 1.55 1.86 2.67 2.16 1.02 0.16 0.06 0.04 0.10 0.24 0.25 0.15 0.10 0.21 0.68 0.80 0.49 0.42 0.33 0.22 0.17 0.52 1.12 0.47 0.24 0.28 0.25 0.23 0.61 0.72 0.94 0.76 0.44 0.36 0.15 0.01 0.02 0.01 0.00 0.00 0.00 0.00 0.00
2.38 1.57 1.83 1.47 2.10 1.44 0.56 0.17 0.11 0.06 0.14 0.28 0.20 0.09 0.06 0.18 0.74 0.60 0.63 0.46 0.56 0.47 0.39 0.34 0.78 0.88 0.48 0.62 0.49 0.53 0.26 0.41 0.46 0.39 0.30 0.40 0.17 0.03 0.06 0.02 0.01 0.01 0.00 0.00 0.00
2.73 1.98 2.36 2.33 1.09 0.56 0.56 0.41 0.28 0.11 0.12 0.21 0.21 0.17 0.27 0.18 0.31 0.45 0.31 0.33 0.35 0.49 0.44 0.59 0.78 0.73 0.55 1.00 1.10 0.98 0.74 0.36 0.48 0.50 0.20 0.16 0.07 0.09 0.10 0.05 0.02 0.01 0.01 0.00 0.00
2.89 1.70 1.55 1.88 1.16 0.57 0.81 0.78 0.26 0.19 0.23 0.26 0.29 0.21 0.37 0.51 0.14 0.18 0.14 0.34 0.42 0.61 0.53 0.94 1.05 0.50 0.15 0.10 0.28 0.42 0.66 0.57 0.59 0.35 0.30 0.08 0.01 0.03 0.10 0.07 0.04 0.04 0.01 0.00 0.00
2.27 1.17 1.11 0.81 0.54 0.67 0.76 0.52 0.19 0.28 0.38 0.20 0.24 0.05 0.12 0.31 0.15 0.14 0.36 0.52 0.67 0.70 0.85 1.14 1.24 0.44 0.18 0.04 0.06 0.12 0.16 0.30 0.38 0.19 0.10 0.05 0.03 0.03 0.03 0.09 0.14 0.10 0.05 0.01 0.00
1.49 0.77 1.32 1.41 0.78 0.97 0.60 0.25 0.27 0.33 0.23 0.03 0.07 0.17 0.10 0.06 0.06 0.26 0.28 0.45 0.61 0.74 0.95 1.13 0.98 0.56 0.36 0.14 0.23 0.28 0.06 0.11 0.23 0.24 0.18 0.17 0.12 0.02 0.03 0.13 0.41 0.22 0.09 0.06 0.01

GFSSW_prec_precacc_180.txt.gz
Total_Precipitation_Accumulation
0.05 0.06 0.07 0.08 0.09 0.10 0.12 0.13 0.13 0.13 0.12 0.11 0.11 0.10 0.10 0.12 0.09 0.06 0.05 0.05 0.02 0.00 0.00 0.00 0.00 0.00 0.00 0.00 0.00 0.02 0.04 0.01 0.00 0.00 0.00 0.00 0.00 0.00 0.00 0.00 0.00 0.00 0.00 0.00 0.00
0.04 0.05 0.07 0.08 0.09 0.10 0.11 0.12 0.11 0.12 0.12 0.15 0.16 0.18 0.24 0.22 0.05 0.05 0.06 0.02 0.01 0.00 0.00 0.00 0.00 0.01 0.00 0.00 0.01 0.05 0.02 0.00 0.00 0.00 0.00 0.00 0.00 0.00 0.00 0.00 0.00 0.00 0.00 0.00 0.00
0.07 0.06 0.06 0.08 0.09 0.10 0.10 0.12 0.13 0.11 0.11 0.13 0.17 0.30 0.42 0.15 0.03 0.05 0.04 0.03 0.05 0.01 0.00 0.00 0.00 0.03 0.03 0.02 0.02 0.04 0.02 0.00 0.00 0.00 0.00 0.00 0.00 0.00 0.00 0.00 0.00 0.00 0.00 0.00 0.00
0.11 0.10 0.08 0.08 0.11 0.11 0.12 0.11 0.13 0.15 0.16 0.14 0.23 0.40 0.31 0.09 0.05 0.02 0.03 0.02 0.01 0.01 0.02 0.01 0.01 0.04 0.04 0.04 0.04 0.07 0.00 0.00 0.00 0.00 0.01 0.02 0.01 0.01 0.00 0.00 0.00 0.00 0.00 0.00 0.00
0.11 0.14 0.17 0.15 0.15 0.15 0.12 0.12 0.13 0.16 0.14 0.16 0.30 0.45 0.25 0.10 0.04 0.00 0.00 0.01 0.01 0.01 0.03 0.02 0.03 0.07 0.09 0.05 0.06 0.09 0.04 0.03 0.02 0.04 0.04 0.03 0.04 0.02 0.00 0.00 0.00 0.00 0.00 0.00 0.00
0.16 0.20 0.20 0.24 0.28 0.23 0.17 0.18 0.20 0.20 0.17 0.16 0.37 0.38 0.21 0.10 0.00 0.00 0.00 0.00 0.00 0.01 0.03 0.05 0.05 0.06 0.10 0.04 0.07 0.09 0.05 0.03 0.03 0.03 0.03 0.07 0.05 0.03 0.00 0.00 0.00 0.00 0.00 0.00 0.00
0.18 0.21 0.31 0.32 0.22 0.23 0.31 0.33 0.29 0.21 0.22 0.31 0.43 0.26 0.22 0.05 0.00 0.00 0.00 0.00 0.01 0.01 0.00 0.00 0.03 0.11 0.12 0.06 0.02 0.03 0.05 0.01 0.00 0.01 0.02 0.13 0.13 0.01 0.00 0.01 0.03 0.01 0.00 0.00 0.00
0.20 0.21 0.26 0.27 0.37 0.38 0.31 0.27 0.37 0.40 0.39 0.36 0.27 0.24 0.22 0.00 0.00 0.00 0.00 0.00 0.00 0.00 0.00 0.00 0.00 0.03 0.06 0.08 0.06 0.09 0.13 0.07 0.00 0.02 0.06 0.29 0.32 0.00 0.00 0.03 0.01 0.00 0.00 0.00 0.00
0.28 0.27 0.28 0.30 0.31 0.38 0.40 0.42 0.39 0.35 0.41 0.39 0.37 0.37 0.15 0.00 0.00 0.00 0.00 0.00 0.00 0.00 0.00 0.01 0.05 0.08 0.09 0.17 0.18 0.12 0.14 0.04 0.01 0.06 0.24 0.33 0.22 0.00 0.00 0.02 0.02 0.02 0.02 0.01 0.00
0.34 0.36 0.36 0.35 0.42 0.59 0.64 0.56 0.43 0.42 0.29 0.36 0.58 0.69 0.16 0.00 0.00 0.00 0.00 0.00 0.01 0.02 0.03 0.08 0.17 0.17 0.19 0.27 0.21 0.07 0.12 0.05 0.06 0.06 0.24 0.33 0.25 0.04 0.01 0.03 0.02 0.01 0.00 0.00 0.00
0.38 0.44 0.48 0.51 0.55 0.75 0.94 0.88 0.93 0.78 0.61 0.27 0.21 0.12 0.01 0.02 0.03 0.00 0.00 0.00 0.00 0.05 0.06 0.06 0.13 0.13 0.13 0.16 0.07 0.10 0.15 0.13 0.02 0.01 0.19 0.25 0.18 0.06 0.03 0.03 0.00 0.00 0.00 0.00 0.00
0.49 0.55 0.66 0.76 0.70 0.73 0.78 0.65 0.48 0.65 0.41 0.14 0.06 0.04 0.01 0.02 0.02 0.00 0.02 0.05 0.02 0.02 0.02 0.10 0.14 0.02 0.02 0.06 0.11 0.14 0.13 0.06 0.06 0.03 0.11 0.10 0.05 0.03 0.04 0.01 0.00 0.00 0.00 0.00 0.01
0.66 0.67 0.80 0.90 0.96 0.87 0.64 0.44 0.37 0.47 0.63 0.15 0.05 0.03 0.01 0.01 0.01 0.00 0.01 0.06 0.04 0.01 0.01 0.04 0.08 0.00 0.03 0.04 0.06 0.07 0.13 0.08 0.05 0.01 0.02 0.02 0.02 0.00 0.00 0.00 0.00 0.00 0.00 0.00 0.02
0.76 0.84 1.00 0.98 1.18 0.79 0.75 0.56 0.47 0.88 1.31 0.32 0.02 0.03 0.01 0.04 0.05 0.00 0.00 0.04 0.11 0.03 0.01 0.04 0.00 0.03 0.06 0.05 0.06 0.07 0.01 0.03 0.04 0.13 0.10 0.06 0.12 0.00 0.00 0.00 0.00 0.00 0.00 0.00 0.02
1.06 1.09 1.18 1.19 0.78 0.81 0.66 0.60 0.84 1.52 2.23 0.31 0.00 0.00 0.00 0.09 0.06 0.01 0.01 0.07 0.11 0.09 0.11 0.06 0.00 0.01 0.05 0.04 0.06 0.05 0.05 0.07 0.05 0.09 0.11 0.06 0.16 0.04 0.00 0.00 0.00 0.00 0.00 0.00 0.00
0.98 1.37 1.13 0.98 0.91 0.57 0.58 1.24 1.76 2.29 2.12 0.28 0.10 0.06 0.05 0.02 0.00 0.04 0.14 0.12 0.15 0.14 0.25 0.09 0.00 0.01 0.02 0.02 0.07 0.05 0.10 0.15 0.19 0.21 0.64 0.22 0.09 0.05 0.00 0.00 0.00 0.00 0.00 0.00 0.00
1.33 1.38 1.38 0.90 0.95 0.75 1.18 2.19 2.63 2.07 0.63 0.30 0.12 0.18 0.16 0.03 0.01 0.07 0.21 0.30 0.16 0.53 0.48 0.30 0.06 0.01 0.05 0.09 0.12 0.29 0.37 0.71 0.92 0.95 0.81 0.08 0.07 0.04 0.00 0.00 0.00 0.00 0.00 0.00 0.00
1.52 1.51 1.16 1.01 0.83 1.17 1.87 2.43 2.59 0.62 0.19 0.17 0.14 0.14 0.21 0.21 0.10 0.07 0.17 0.42 0.30 0.25 0.47 0.30 0.18 0.03 0.06 0.08 0.14 0.27 0.72 0.78 0.58 0.53 0.21 0.04 0.04 0.01 0.00 0.00 0.00 0.00 0.00 0.00 0.00
1.56 1.47 1.44 1.02 0.83 1.52 2.33 2.53 1.29 0.26 0.11 0.11 0.09 0.25 0.18 0.39 0.50 0.24 0.13 0.18 0.54 0.54 0.73 0.68 0.18 0.04 0.02 0.01 0.07 0.14 0.46 0.54 0.31 0.16 0.23 0.12 0.04 0.00 0.00 0.00 0.00 0.00 0.00 0.00 0.00
1.78 1.72 1.76 1.27 1.24 1.77 2.36 1.66 0.47 0.07 0.11 0.10 0.22 0.26 0.44 0.26 0.52 0.71 0.33 0.06 0.11 0.57 0.88 0.71 0.53 0.07 0.07 0.10 0.08 0.07 0.12 0.41 1.04 0.97 0.30 0.06 0.02 0.00 0.00 0.00 0.00 0.00 0.00 0.00 0.00
2.12 2.24 1.61 1.61 1.76 2.19 2.09 0.70 0.12 0.03 0.13 0.26 0.14 0.19 0.24 0.44 0.64 0.72 0.64 0.16 0.07 0.15 0.64 1.11 0.77 0.17 0.19 0.32 0.18 0.27 0.29 0.47 0.93 0.63 0.40 0.19 0.02 0.01 0.01 0.01 0.00 0.00 0.00 0.00 0.00
2.52 2.26 1.62 1.89 2.73 2.18 1.02 0.16 0.06 0.04 0.10 0.24 0.25 0.15 0.10 0.21 0.68 0.80 0.49 0.42 0.33 0.22 0.17 0.52 1.12 0.47 0.24 0.28 0.25 0.23 0.61 0.72 0.94 0.76 0.44 0.36 0.15 0.01 0.02 0.01 0.00 0.00 0.00 0.00 0.00
2.71 1.91 2.00 1.57 2.20 1.47 0.56 0.17 0.11 0.06 0.14 0.28 0.20 0.09 0.06 0.18 0.74 0.60 0.63 0.46 0.56 0.47 0.39 0.34 0.78 0.88 0.48 0.62 0.49 0.53 0.26 0.41 0.46 0.39 0.30 0.40 0.17 0.03 0.06 0.02 0.01 0.01 0.00 0.00 0.00
3.00 2.33 2.65 2.53 1.14 0.57 0.56 0.41 0.28 0.11 0.12 0.21 0.21 0.17 0.27 0.18 0.31 0.45 0.31 0.33 0.35 0.49 0.44 0.59 0.78 0.73 0.55 1.00 1.10 0.98 0.74 0.36 0.48 0.50 0.20 0.16 0.07 0.09 0.10 0.05 0.02 0.01 0.01 0.00 0.00
3.07 1.96 1.69 1.97 1.18 0.57 0.81 0.78 0.26 0.19 0.23 0.26 0.29 0.21 0.37 0.51 0.14 0.18 0.14 0.34 0.42 0.61 0.53 0.94 1.05 0.50 0.15 0.10 0.28 0.42 0.66 0.57 0.59 0.35 0.30 0.08 0.01 0.03 0.10 0.07 0.04 0.04 0.01 0.00 0.00
2.40 1.27 1.17 0.83 0.54 0.67 0.77 0.52 0.19 0.28 0.38 0.20 0.24 0.05 0.12 0.31 0.15 0.14 0.36 0.52 0.67 0.70 0.85 1.14 1.24 0.44 0.18 0.04 0.06 0.12 0.16 0.30 0.38 0.19 0.10 0.05 0.03 0.03 0.03 0.09 0.14 0.10 0.05 0.01 0.00
1.75 0.85 1.35 1.44 0.78 0.98 0.61 0.25 0.27 0.33 0.23 0.03 0.07 0.17 0.10 0.06 0.06 0.26 0.28 0.45 0.61 0.74 0.95 1.13 0.98 0.56 0.36 0.14 0.23 0.28 0.06 0.11 0.23 0.24 0.18 0.17 0.12 0.02 0.03 0.13 0.41 0.22 0.09 0.06 0.01

GFSSW_prec_precacc_186.txt.gz
Total_Precipitation_Accumulation
0.06 0.07 0.08 0.08 0.09 0.10 0.12 0.13 0.13 0.13 0.12 0.11 0.11 0.10 0.10 0.12 0.09 0.06 0.05 0.05 0.02 0.00 0.00 0.00 0.00 0.00 0.00 0.00 0.00 0.02 0.04 0.01 0.00 0.00 0.00 0.00 0.00 0.00 0.00 0.00 0.00 0.00 0.00 0.00 0.00
0.05 0.06 0.08 0.09 0.10 0.10 0.11 0.12 0.11 0.12 0.12 0.15 0.16 0.18 0.24 0.22 0.05 0.05 0.07 0.02 0.01 0.00 0.00 0.00 0.00 0.01 0.00 0.00 0.01 0.05 0.02 0.00 0.00 0.00 0.00 0.00 0.00 0.00 0.00 0.00 0.00 0.00 0.00 0.00 0.00
0.07 0.07 0.07 0.08 0.09 0.10 0.10 0.12 0.13 0.11 0.11 0.13 0.17 0.30 0.42 0.15 0.03 0.05 0.04 0.03 0.05 0.01 0.00 0.00 0.00 0.03 0.03 0.02 0.02 0.04 0.02 0.00 0.00 0.00 0.00 0.00 0.00 0.00 0.00 0.00 0.00 0.00 0.00 0.00 0.00
0.11 0.10 0.09 0.08 0.11 0.11 0.12 0.11 0.13 0.16 0.16 0.14 0.23 0.40 0.31 0.09 0.05 0.02 0.03 0.02 0.01 0.01 0.02 0.01 0.01 0.04 0.04 0.04 0.04 0.07 0.00 0.00 0.00 0.00 0.01 0.02 0.01 0.01 0.00 0.00 0.00 0.00 0.00 0.00 0.00
0.11 0.14 0.17 0.15 0.15 0.15 0.12 0.12 0.13 0.16 0.15 0.16 0.30 0.45 0.25 0.10 0.04 0.00 0.00 0.01 0.01 0.01 0.03 0.02 0.03 0.07 0.09 0.05 0.06 0.09 0.04 0.03 0.02 0.04 0.04 0.03 0.04 0.02 0.00 0.00 0.00 0.00 0.00 0.00 0.00
0.17 0.20 0.20 0.24 0.28 0.23 0.17 0.18 0.20 0.20 0.17 0.16 0.37 0.38 0.21 0.10 0.00 0.00 0.00 0.00 0.00 0.01 0.03 0.05 0.05 0.06 0.10 0.04 0.07 0.09 0.05 0.03 0.03 0.03 0.03 0.07 0.05 0.03 0.00 0.00 0.00 0.00 0.00 0.00 0.00
0.18 0.21 0.31 0.32 0.22 0.23 0.31 0.33 0.29 0.21 0.22 0.31 0.43 0.26 0.22 0.05 0.00 0.00 0.00 0.00 0.01 0.01 0.00 0.00 0.03 0.11 0.12 0.06 0.02 0.03 0.05 0.01 0.00 0.01 0.02 0.13 0.13 0.01 0.00 0.01 0.03 0.01 0.00 0.00 0.00
0.20 0.21 0.26 0.27 0.37 0.38 0.31 0.27 0.37 0.40 0.39 0.36 0.27 0.24 0.22 0.00 0.00 0.00 0.00 0.00 0.00 0.00 0.00 0.00 0.00 0.03 0.06 0.08 0.06 0.09 0.13 0.07 0.00 0.02 0.06 0.29 0.32 0.00 0.00 0.03 0.01 0.00 0.00 0.00 0.00
0.28 0.27 0.28 0.30 0.31 0.38 0.40 0.42 0.39 0.35 0.41 0.39 0.37 0.37 0.15 0.00 0.00 0.00 0.00 0.00 0.00 0.00 0.00 0.01 0.05 0.08 0.09 0.17 0.18 0.12 0.14 0.04 0.01 0.06 0.24 0.33 0.22 0.00 0.00 0.02 0.02 0.02 0.02 0.01 0.00
0.34 0.36 0.36 0.35 0.42 0.59 0.64 0.56 0.43 0.42 0.29 0.36 0.58 0.69 0.16 0.00 0.00 0.00 0.00 0.00 0.01 0.02 0.03 0.08 0.17 0.17 0.19 0.27 0.21 0.07 0.12 0.05 0.06 0.06 0.24 0.33 0.25 0.04 0.01 0.03 0.02 0.01 0.00 0.00 0.00
0.39 0.44 0.48 0.51 0.55 0.75 0.94 0.88 0.93 0.78 0.61 0.27 0.21 0.12 0.01 0.02 0.03 0.00 0.00 0.00 0.00 0.05 0.06 0.06 0.13 0.13 0.13 0.16 0.07 0.10 0.15 0.13 0.02 0.01 0.19 0.25 0.18 0.06 0.03 0.03 0.00 0.00 0.00 0.00 0.00
0.50 0.55 0.66 0.76 0.70 0.73 0.78 0.65 0.48 0.65 0.41 0.14 0.06 0.04 0.01 0.02 0.02 0.00 0.02 0.05 0.02 0.02 0.02 0.10 0.14 0.02 0.02 0.06 0.11 0.14 0.13 0.06 0.06 0.03 0.11 0.10 0.05 0.03 0.04 0.01 0.00 0.00 0.00 0.00 0.01
0.68 0.68 0.80 0.90 0.96 0.87 0.64 0.44 0.37 0.47 0.63 0.15 0.05 0.03 0.01 0.01 0.01 0.00 0.01 0.06 0.04 0.01 0.01 0.04 0.08 0.00 0.03 0.04 0.06 0.07 0.13 0.08 0.05 0.01 0.02 0.02 0.02 0.00 0.00 0.00 0.00 0.00 0.00 0.00 0.02
0.79 0.86 1.00 0.98 1.18 0.79 0.75 0.56 0.47 0.88 1.31 0.32 0.02 0.03 0.01 0.04 0.05 0.00 0.00 0.04 0.11 0.03 0.01 0.04 0.00 0.03 0.06 0.05 0.06 0.07 0.01 0.03 0.04 0.13 0.10 0.06 0.12 0.00 0.00 0.00 0.00 0.00 0.00 0.00 0.02
1.09 1.12 1.20 1.19 0.79 0.81 0.66 0.60 0.84 1.52 2.23 0.31 0.00 0.00 0.00 0.09 0.06 0.01 0.01 0.07 0.11 0.09 0.11 0.06 0.00 0.01 0.05 0.04 0.06 0.05 0.05 0.07 0.05 0.09 0.11 0.06 0.16 0.04 0.00 0.00 0.00 0.00 0.00 0.00 0.00
1.05 1.44 1.19 0.99 0.92 0.57 0.58 1.24 1.76 2.29 2.12 0.28 0.10 0.06 0.05 0.02 0.00 0.04 0.14 0.12 0.15 0.14 0.25 0.09 0.00 0.01 0.02 0.02 0.07 0.05 0.10 0.15 0.19 0.21 0.64 0.22 0.09 0.05 0.00 0.00 0.00 0.00 0.00 0.00 0.00
1.47 1.58 1.53 0.97 0.99 0.77 1.18 2.20 2.65 2.08 0.63 0.30 0.12 0.18 0.16 0.03 0.01 0.07 0.21 0.30 0.16 0.53 0.48 0.30 0.06 0.01 0.05 0.09 0.12 0.29 0.37 0.71 0.92 0.95 0.81 0.08 0.07 0.04 0.00 0.00 0.00 0.00 0.00 0.00 0.00
1.64 1.68 1.28 1.09 0.90 1.29 2.01 2.50 2.65 0.63 0.19 0.17 0.14 0.14 0.21 0.21 0.10 0.07 0.17 0.42 0.30 0.25 0.47 0.30 0.18 0.03 0.06 0.08 0.14 0.27 0.72 0.78 0.58 0.53 0.21 0.04 0.04 0.01 0.00 0.00 0.00 0.00 0.00 0.00 0.00
1.74 1.70 1.66 1.10 0.88 1.59 2.52 2.80 1.34 0.26 0.11 0.11 0.09 0.25 0.18 0.39 0.50 0.24 0.13 0.18 0.54 0.54 0.73 0.68 0.18 0.04 0.02 0.01 0.07 0.14 0.46 0.54 0.31 0.16 0.23 0.12 0.04 0.00 0.00 0.00 0.00 0.00 0.00 0.00 0.00
1.93 1.92 1.93 1.38 1.46 2.07 2.66 1.81 0.48 0.07 0.11 0.10 0.22 0.26 0.44 0.26 0.52 0.71 0.33 0.06 0.11 0.57 0.88 0.71 0.53 0.07 0.07 0.10 0.08 0.07 0.12 0.41 1.04 0.97 0.30 0.06 0.02 0.00 0.00 0.00 0.00 0.00 0.00 0.00 0.00
2.30 2.43 1.71 1.80 2.33 2.92 2.55 0.80 0.12 0.03 0.13 0.26 0.14 0.19 0.24 0.44 0.64 0.72 0.64 0.16 0.07 0.15 0.64 1.11 0.77 0.17 0.19 0.32 0.18 0.27 0.29 0.47 0.93 0.63 0.40 0.19 0.02 0.01 0.01 0.01 0.00 0.00 0.00 0.00 0.00
2.78 2.49 1.71 2.04 3.36 2.91 1.24 0.18 0.06 0.04 0.10 0.24 0.25 0.15 0.10 0.21 0.68 0.80 0.49 0.42 0.33 0.22 0.17 0.52 1.12 0.47 0.24 0.28 0.25 0.23 0.61 0.72 0.94 0.76 0.44 0.36 0.15 0.01 0.02 0.01 0.00 0.00 0.00 0.00 0.00
3.03 2.19 2.31 1.87 2.56 1.65 0.59 0.18 0.11 0.07 0.14 0.28 0.20 0.09 0.06 0.18 0.74 0.60 0.63 0.46 0.56 0.47 0.39 0.34 0.78 0.88 0.48 0.62 0.49 0.53 0.26 0.41 0.46 0.39 0.30 0.40 0.17 0.03 0.06 0.02 0.01 0.01 0.00 0.00 0.00
3.40 2.55 3.14 3.20 1.37 0.61 0.58 0.43 0.29 0.11 0.12 0.21 0.21 0.17 0.27 0.18 0.31 0.45 0.31 0.33 0.35 0.49 0.44 0.59 0.78 0.73 0.55 1.00 1.10 0.98 0.74 0.36 0.48 0.50 0.20 0.16 0.07 0.09 0.10 0.05 0.02 0.01 0.01 0.00 0.00
3.43 2.38 1.85 2.24 1.38 0.61 0.83 0.81 0.27 0.20 0.23 0.27 0.30 0.21 0.37 0.51 0.14 0.18 0.14 0.34 0.42 0.61 0.53 0.94 1.05 0.50 0.15 0.10 0.28 0.42 0.66 0.57 0.59 0.35 0.30 0.08 0.01 0.03 0.10 0.07 0.04 0.04 0.01 0.00 0.00
2.71 1.47 1.33 0.93 0.57 0.76 0.89 0.64 0.19 0.28 0.40 0.21 0.25 0.05 0.12 0.31 0.15 0.14 0.36 0.52 0.67 0.70 0.85 1.14 1.24 0.44 0.18 0.04 0.06 0.12 0.16 0.30 0.38 0.19 0.10 0.05 0.03 0.03 0.03 0.09 0.14 0.10 0.05 0.01 0.00
1.97 1.11 1.59 1.54 0.82 1.08 0.72 0.30 0.28 0.34 0.28 0.04 0.07 0.19 0.11 0.06 0.06 0.26 0.28 0.45 0.61 0.74 0.95 1.13 0.98 0.56 0.36 0.14 0.23 0.28 0.06 0.11 0.23 0.24 0.18 0.17 0.12 0.02 0.03 0.13 0.41 0.22 0.09 0.06 0.01

GFSSW_prec_precacc_189.txt.gz
Total_Precipitation_Accumulation
0.06 0.07 0.08 0.09 0.09 0.10 0.12 0.14 0.13 0.13 0.12 0.11 0.11 0.10 0.10 0.12 0.09 0.06 0.05 0.05 0.02 0.00 0.00 0.00 0.00 0.00 0.00 0.00 0.00 0.02 0.04 0.01 0.00 0.00 0.00 0.00 0.00 0.00 0.00 0.00 0.00 0.00 0.00 0.00 0.00
0.05 0.06 0.08 0.09 0.10 0.10 0.11 0.12 0.11 0.12 0.12 0.15 0.16 0.18 0.24 0.22 0.05 0.05 0.07 0.02 0.01 0.00 0.00 0.00 0.00 0.01 0.00 0.00 0.01 0.05 0.02 0.00 0.00 0.00 0.00 0.00 0.00 0.00 0.00 0.00 0.00 0.00 0.00 0.00 0.00
0.07 0.07 0.07 0.08 0.09 0.10 0.10 0.12 0.13 0.12 0.11 0.13 0.17 0.30 0.42 0.15 0.03 0.05 0.04 0.03 0.05 0.01 0.00 0.00 0.00 0.03 0.03 0.02 0.02 0.04 0.02 0.00 0.00 0.00 0.00 0.00 0.00 0.00 0.00 0.00 0.00 0.00 0.00 0.00 0.00
0.11 0.11 0.09 0.08 0.11 0.11 0.12 0.11 0.13 0.16 0.16 0.14 0.23 0.40 0.31 0.09 0.05 0.02 0.03 0.02 0.01 0.01 0.02 0.01 0.01 0.04 0.04 0.04 0.04 0.07 0.00 0.00 0.00 0.00 0.01 0.02 0.01 0.01 0.00 0.00 0.00 0.00 0.00 0.00 0.00
0.12 0.15 0.17 0.15 0.15 0.15 0.12 0.12 0.13 0.16 0.15 0.16 0.30 0.45 0.25 0.10 0.04 0.00 0.00 0.01 0.01 0.01 0.03 0.02 0.03 0.07 0.09 0.05 0.06 0.09 0.04 0.03 0.02 0.04 0.04 0.03 0.04 0.02 0.00 0.00 0.00 0.00 0.00 0.00 0.00
0.17 0.21 0.20 0.24 0.28 0.23 0.17 0.18 0.20 0.20 0.17 0.16 0.37 0.38 0.21 0.10 0.00 0.00 0.00 0.00 0.00 0.01 0.03 0.05 0.05 0.06 0.10 0.04 0.07 0.09 0.05 0.03 0.03 0.03 0.03 0.07 0.05 0.03 0.00 0.00 0.00 0.00 0.00 0.00 0.00
0.19 0.22 0.31 0.32 0.22 0.23 0.31 0.33 0.29 0.21 0.22 0.31 0.43 0.26 0.22 0.05 0.00 0.00 0.00 0.00 0.01 0.01 0.00 0.00 0.03 0.11 0.12 0.06 0.02 0.03 0.05 0.01 0.00 0.01 0.02 0.13 0.13 0.01 0.00 0.01 0.03 0.01 0.00 0.00 0.00
0.21 0.21 0.26 0.27 0.37 0.38 0.31 0.27 0.37 0.40 0.39 0.36 0.27 0.24 0.22 0.00 0.00 0.00 0.00 0.00 0.00 0.00 0.00 0.00 0.00 0.03 0.06 0.08 0.06 0.09 0.13 0.07 0.00 0.02 0.06 0.29 0.32 0.00 0.00 0.03 0.01 0.00 0.00 0.00 0.00
0.28 0.27 0.28 0.30 0.31 0.38 0.40 0.42 0.39 0.35 0.41 0.39 0.37 0.37 0.15 0.00 0.00 0.00 0.00 0.00 0.00 0.00 0.00 0.01 0.05 0.08 0.09 0.17 0.18 0.12 0.14 0.04 0.01 0.06 0.24 0.33 0.22 0.00 0.00 0.02 0.02 0.02 0.02 0.01 0.00
0.34 0.36 0.36 0.35 0.42 0.59 0.64 0.56 0.43 0.42 0.29 0.36 0.58 0.69 0.16 0.00 0.00 0.00 0.00 0.00 0.01 0.02 0.03 0.08 0.17 0.17 0.19 0.27 0.21 0.07 0.12 0.05 0.06 0.06 0.24 0.33 0.25 0.04 0.01 0.03 0.02 0.01 0.00 0.00 0.00
0.39 0.44 0.48 0.51 0.55 0.75 0.94 0.88 0.93 0.78 0.61 0.27 0.21 0.12 0.01 0.02 0.03 0.00 0.00 0.00 0.00 0.05 0.06 0.06 0.13 0.13 0.13 0.16 0.07 0.10 0.15 0.13 0.02 0.01 0.19 0.25 0.18 0.06 0.03 0.03 0.00 0.00 0.00 0.00 0.00
0.51 0.56 0.67 0.76 0.70 0.73 0.78 0.65 0.48 0.65 0.41 0.14 0.06 0.04 0.01 0.02 0.02 0.00 0.02 0.05 0.02 0.02 0.02 0.10 0.14 0.02 0.02 0.06 0.11 0.14 0.13 0.06 0.06 0.03 0.11 0.10 0.05 0.03 0.04 0.01 0.00 0.00 0.00 0.00 0.01
0.69 0.69 0.81 0.90 0.96 0.87 0.64 0.44 0.37 0.47 0.63 0.15 0.05 0.03 0.01 0.01 0.01 0.00 0.01 0.06 0.04 0.01 0.01 0.04 0.08 0.00 0.03 0.04 0.06 0.07 0.13 0.08 0.05 0.01 0.02 0.02 0.02 0.00 0.00 0.00 0.00 0.00 0.00 0.00 0.02
0.79 0.87 1.02 1.01 1.19 0.79 0.75 0.56 0.47 0.88 1.31 0.32 0.02 0.03 0.01 0.04 0.05 0.00 0.00 0.04 0.11 0.03 0.01 0.04 0.00 0.03 0.06 0.05 0.06 0.07 0.01 0.03 0.04 0.13 0.10 0.06 0.12 0.00 0.00 0.00 0.00 0.00 0.00 0.00 0.02
1.09 1.13 1.23 1.25 0.79 0.81 0.66 0.60 0.84 1.53 2.25 0.31 0.00 0.00 0.00 0.09 0.06 0.01 0.01 0.07 0.11 0.09 0.11 0.06 0.00 0.01 0.05 0.04 0.06 0.05 0.05 0.07 0.05 0.09 0.11 0.06 0.16 0.04 0.00 0.00 0.00 0.00 0.00 0.00 0.00
1.05 1.45 1.24 1.10 0.96 0.57 0.59 1.25 1.79 2.37 2.16 0.28 0.10 0.06 0.05 0.02 0.00 0.04 0.14 0.12 0.15 0.14 0.25 0.09 0.00 0.01 0.02 0.02 0.07 0.05 0.10 0.15 0.19 0.21 0.64 0.22 0.09 0.05 0.00 0.00 0.00 0.00 0.00 0.00 0.00
1.47 1.58 1.57 1.04 1.04 0.78 1.20 2.25 2.81 2.24 0.64 0.30 0.12 0.18 0.16 0.03 0.01 0.07 0.21 0.30 0.16 0.53 0.48 0.30 0.06 0.01 0.05 0.09 0.12 0.29 0.37 0.71 0.92 0.95 0.81 0.08 0.07 0.04 0.00 0.00 0.00 0.00 0.00 0.00 0.00
1.67 1.70 1.32 1.16 0.93 1.34 2.16 2.81 2.97 0.67 0.19 0.17 0.14 0.14 0.21 0.21 0.10 0.07 0.17 0.42 0.30 0.25 0.47 0.30 0.18 0.03 0.06 0.08 0.14 0.27 0.72 0.78 0.58 0.53 0.21 0.04 0.04 0.01 0.00 0.00 0.00 0.00 0.00 0.00 0.00
1.79 1.72 1.70 1.23 0.96 1.65 2.65 3.16 1.51 0.27 0.11 0.11 0.09 0.25 0.18 0.39 0.50 0.24 0.13 0.18 0.54 0.54 0.73 0.68 0.18 0.04 0.02 0.01 0.07 0.14 0.46 0.54 0.31 0.16 0.23 0.12 0.04 0.00 0.00 0.00 0.00 0.00 0.00 0.00 0.00
1.99 1.96 1.95 1.44 1.64 2.26 2.86 1.93 0.50 0.07 0.11 0.11 0.23 0.26 0.44 0.26 0.52 0.71 0.33 0.06 0.11 0.57 0.88 0.71 0.53 0.07 0.07 0.10 0.08 0.07 0.12 0.41 1.04 0.97 0.30 0.06 0.02 0.00 0.00 0.00 0.00 0.00 0.00 0.00 0.00
2.40 2.54 1.73 1.87 2.48 3.25 2.72 0.84 0.12 0.03 0.13 0.26 0.15 0.20 0.24 0.44 0.64 0.72 0.64 0.16 0.07 0.15 0.64 1.11 0.77 0.17 0.19 0.32 0.18 0.27 0.29 0.47 0.93 0.63 0.40 0.19 0.02 0.01 0.01 0.01 0.00 0.00 0.00 0.00 0.00
2.96 2.62 1.73 2.10 3.54 3.16 1.32 0.19 0.06 0.04 0.11 0.25 0.25 0.15 0.10 0.21 0.68 0.80 0.49 0.42 0.33 0.22 0.17 0.52 1.12 0.47 0.24 0.28 0.25 0.23 0.61 0.72 0.94 0.76 0.44 0.36 0.15 0.01 0.02 0.01 0.00 0.00 0.00 0.00 0.00
3.23 2.24 2.43 2.04 2.77 1.82 0.68 0.19 0.13 0.10 0.17 0.30 0.20 0.10 0.06 0.18 0.74 0.60 0.63 0.46 0.56 0.47 0.39 0.34 0.78 0.88 0.48 0.62 0.49 0.53 0.26 0.41 0.46 0.39 0.30 0.40 0.17 0.03 0.06 0.02 0.01 0.01 0.00 0.00 0.00
3.60 2.59 3.21 3.49 1.56 0.65 0.62 0.48 0.31 0.13 0.15 0.22 0.22 0.18 0.27 0.18 0.31 0.45 0.31 0.33 0.35 0.49 0.44 0.59 0.78 0.73 0.55 1.00 1.10 0.98 0.74 0.36 0.48 0.50 0.20 0.16 0.07 0.09 0.10 0.05 0.02 0.01 0.01 0.00 0.00
3.61 2.46 1.92 2.28 1.52 0.69 0.85 0.83 0.29 0.21 0.26 0.28 0.31 0.23 0.37 0.51 0.14 0.18 0.14 0.34 0.42 0.61 0.53 0.94 1.05 0.50 0.15 0.10 0.28 0.42 0.66 0.57 0.59 0.35 0.30 0.08 0.01 0.03 0.10 0.07 0.04 0.04 0.01 0.00 0.00
2.81 1.49 1.45 0.98 0.58 0.84 1.03 0.70 0.21 0.30 0.40 0.21 0.25 0.06 0.13 0.33 0.16 0.14 0.36 0.52 0.67 0.70 0.85 1.14 1.24 0.44 0.18 0.04 0.06 0.12 0.16 0.30 0.38 0.19 0.10 0.05 0.03 0.03 0.03 0.09 0.14 0.10 0.05 0.01 0.00
2.01 1.14 1.67 1.70 0.90 1.14 0.83 0.40 0.31 0.37 0.30 0.04 0.08 0.24 0.18 0.07 0.07 0.26 0.28 0.45 0.61 0.74 0.95 1.13 0.98 0.56 0.36 0.14 0.23 0.28 0.06 0.11 0.23 0.24 0.18 0.17 0.12 0.02 0.03 0.13 0.41 0.22 0.09 0.06 0.01